Weather in St. Louis

United States     38°38′08″N   90°14′26″W
temp.,
°C
wind,
m/s
gust,
m/s
humid.,
%
clouds,
%
prec.,
mm/h
press.,
hPa
HPBL,
m
26 may, thu
thu2601:00+19sse3119752 0.8 1007449
04:00+19se51195100 0.6 1006491
07:00+18se51192100 2.8 1006546
10:00+20s61165100 0.6 10071328
13:00+23sse684649 0.6 10052102
16:00+17sw5871100 0.3 1006769
19:00+16wsw357196 0.3 1006744
22:00+15wsw237645 0.0 1006403
27 may, fri
fri2701:00+13wsw248548 0.0 1007289
04:00+13w2385100 0.0 1007268
07:00+14w2490100 0.3 1008233
10:00+17wnw4786100 0.0 1009827
13:00+17nw5783100 0.1 1011753
16:00+17nw5782100 0.1 1012878
19:00+17nw3784100 0.1 1013564
22:00+16n23930 0.1 101385
28 may, sat
sat2801:00+14wnw119534 0.1 101311
04:00+13wnw12965 0.0 101421
07:00+14se22933 0.0 1014109
10:00+20sse34645 0.0 1014837
13:00+25s454798 0.0 10121226
16:00+27sse564314 0.0 10091303
19:00+24sse6106381 0.0 1008613
22:00+21sse513705 0.0 1009558
29 may, sun
sun2901:00+20sse514760 0.1 1008456
04:00+19sse515796 0.0 1008474
07:00+19sse61785100 0.9 1008563
10:00+23s8197499 1.3 1007702
13:00+29s81750100 1.7 1006833
16:00+33s8144378 0.0 10051240
19:00+29s61354100 0.0 1007906
22:00+26s6156338 0.0 1009814
30 may, mon
mon3001:00+25s515730 0.0 1010730
04:00+23s4147779 0.0 1011552
07:00+23s4137817 0.0 1013558
10:00+28s610585 0.0 1014794
13:00+33s68423 0.0 10141717
16:00+33sse67405 0.0 10132116
19:00+29sse6115466 0.0 1014916
22:00+26s512565 0.0 1017746